星链-2559 (STARLINK-2559 )

导读

STARLINK-2559是美国SpaceX公司星链(Starlink)计划中的一颗近地轨道卫星,于2021年4月29日发射升空。星链计划旨在构建全球卫星互联网星座,通过大规模低轨卫星组网,为全球任何地点提供低时延、高速的宽带互联网服务,突破传统地面网络的地理限制。STARLINK-2559作为星链星座的组成部分,承担着全球网络覆盖扩展的任务,助力SpaceX实现全球卫星互联网服务的部署,截至2025年,星链已累计发射数千颗卫星,覆盖上百个国家和地区,拥有超500万用户。

基本信息
目录编号:
48298
目录名称:
STARLINK-2559
国际标识:
2021-036Y
轨道中心:
EARTH
卫星名称:
星链-2559
卫星全名:
星链-2559 (STARLINK-2559 )
卫星状态:
在轨 (已飞行1876 天)
发射日期:
2021-04-29 UTC
国别 :
美国 (US)
星等 :
--
轨道信息
数据来源 国际轨道数据 AOE轨道数据
星历时间 2026-06-17T23:33:05+0800
1天前
查看轨道信息
2026-06-18T15:00:00+0800
9小时前
查看轨道信息
半长轴 6837.305km 6837.172km
偏心率 0.0002108 0.0002476
轨道倾角 53.159° 53.157°
近地点辐角 278.377° 295.497°
升交点赤经 329.778° 326.769°
平近点角 81.699° 25.033°
近地点 457.726km 457.342km
远地点 460.61km 460.728km
周期 93.775分钟 93.772分钟
每日圈数 15.355905 15.356353
详细信息
固有亮度:
5
最大亮度:
2.5
卫星平台:
Starlink V1.0
覆盖范围:
全球
运营商:
太空探索技术公司
运营商所在国:
美国
制造商(研发单位):
太空探索技术公司
制造商所在国:
美国
使用方式:
暂无
卫星简介
星链(Starlink)计划是由太空探索技术公司(SpaceX)提出的一个巨型低轨卫星互联网星座项目,计划在2019年至2024年间在太空搭建由约1.2万颗卫星组成的“星链”网络,其中1584颗将部署在地球上空550千米处的近地轨道,并从2020年开始工作。该卫星仍在工作。
2D轨道图
3D轨道图
轨道高度分析图
轨道倾角分析图
轨道综合分析图
查看轨道综合分析图